EWG66E EDDM-EDDH

Flight info

Callsign EWG66E
Flight time 1h 1m
Altitude 34000
Route INPUD2N INPUD Y102 UPALA M726 NARUS DCT ABGUS DCT DIRBO/N0363F230 T902 RARUP RARUP6A
Aircraft A320/M-SDE3FGHIRWY/LB1

Departure

Time 2026-05-06 18:38
Airport Munich Airport (EDDM)

Arrival

Time 2026-05-06 19:40
Airport Hamburg Helmut Schmidt Airport (EDDH)
Time Latitude Longitude Altitude Speed Heading
2026-05-06 17:52 48.35891 11.79218 1486 ft 0 kts 263°
2026-05-06 18:28 48.35892 11.79232 1475 ft 2 kts 262°
2026-05-06 18:28 48.35894 11.79257 1485 ft 2 kts 265°
2026-05-06 18:28 48.35895 11.79281 1485 ft 2 kts 267°
2026-05-06 18:28 48.35896 11.79306 1485 ft 2 kts 270°
2026-05-06 18:29 48.35895 11.79331 1485 ft 2 kts 276°
2026-05-06 18:29 48.35893 11.79355 1479 ft 2 kts 291°
2026-05-06 18:29 48.35884 11.79376 1477 ft 2 kts 334°
2026-05-06 18:29 48.35869 11.79383 1475 ft 2 kts 351°
2026-05-06 18:30 48.35853 11.79387 1474 ft 2 kts 354°
2026-05-06 18:30 48.35836 11.79389 1475 ft 2 kts 355°
2026-05-06 18:30 48.35827 11.79391 1478 ft 1 kts 355°
2026-05-06 18:30 48.35826 11.79391 1478 ft 0 kts 355°
2026-05-06 18:32 48.35869 11.79387 1475 ft 10 kts
2026-05-06 18:32 48.35904 11.79456 1479 ft 8 kts 70°
2026-05-06 18:32 48.35938 11.79501 1483 ft 7 kts 15°
2026-05-06 18:32 48.35997 11.79494 1481 ft 11 kts 351°
2026-05-06 18:33 48.36081 11.79483 1480 ft 12 kts 355°
2026-05-06 18:33 48.36159 11.79469 1485 ft 10 kts 352°
2026-05-06 18:33 48.36213 11.79508 1485 ft 8 kts 55°
2026-05-06 18:33 48.36223 11.79594 1472 ft 9 kts 85°
2026-05-06 18:34 48.36231 11.79702 1485 ft 12 kts 83°
2026-05-06 18:34 48.36245 11.79872 1485 ft 21 kts 83°
2026-05-06 18:34 48.36261 11.80095 1485 ft 21 kts 84°
2026-05-06 18:34 48.36278 11.80298 1475 ft 19 kts 84°
2026-05-06 18:35 48.36291 11.80480 1480 ft 17 kts 83°
2026-05-06 18:35 48.36305 11.80650 1485 ft 17 kts 83°
2026-05-06 18:35 48.36320 11.80849 1485 ft 21 kts 83°
2026-05-06 18:35 48.36341 11.81084 1481 ft 24 kts 82°
2026-05-06 18:36 48.36358 11.81355 1481 ft 27 kts 85°
2026-05-06 18:36 48.36378 11.81626 1476 ft 25 kts 83°
2026-05-06 18:36 48.36396 11.81864 1479 ft 17 kts 82°
2026-05-06 18:36 48.36398 11.81974 1485 ft 9 kts 66°
2026-05-06 18:37 48.36445 11.82003 1481 ft 8 kts 355°
2026-05-06 18:37 48.36515 11.81991 1473 ft 13 kts 352°
2026-05-06 18:37 48.36618 11.81974 1485 ft 17 kts 354°
2026-05-06 18:37 48.36678 11.81911 1482 ft 12 kts 262°
2026-05-06 18:38 48.36646 11.81556 1485 ft 66 kts 263°
2026-05-06 18:38 48.36568 11.80562 1485 ft 123 kts 263°
2026-05-06 18:38 48.36453 11.79065 1575 ft 157 kts 263°
2026-05-06 18:38 48.36348 11.77461 2277 ft 154 kts 264°
2026-05-06 18:39 48.36236 11.75864 2924 ft 160 kts 264°
2026-05-06 18:39 48.36107 11.74094 3234 ft 181 kts 264°
2026-05-06 18:39 48.35957 11.72089 3579 ft 202 kts 264°
2026-05-06 18:40 48.35793 11.67817 5131 ft 210 kts 285°
2026-05-06 18:40 48.36629 11.65982 5745 ft 229 kts 320°
2026-05-06 18:40 48.38183 11.65013 6214 ft 253 kts 340°
2026-05-06 18:40 48.39941 11.64436 6886 ft 263 kts 344°
2026-05-06 18:41 48.41769 11.63968 7599 ft 269 kts 345°
2026-05-06 18:41 48.43643 11.63508 8358 ft 275 kts 345°
2026-05-06 18:41 48.45548 11.63023 9105 ft 281 kts 345°
2026-05-06 18:41 48.47496 11.62500 9828 ft 287 kts 345°
2026-05-06 18:42 48.49482 11.61942 10546 ft 292 kts 344°
2026-05-06 18:42 48.51459 11.61377 11316 ft 293 kts 345°
2026-05-06 18:42 48.53470 11.60797 12077 ft 296 kts 345°
2026-05-06 18:42 48.55502 11.60209 12819 ft 299 kts 346°
2026-05-06 18:43 48.57572 11.59687 13513 ft 304 kts 347°
2026-05-06 18:43 48.59681 11.59192 14081 ft 312 kts 348°
2026-05-06 18:43 48.61901 11.58667 14220 ft 335 kts 348°
2026-05-06 18:43 48.64274 11.58102 14400 ft 354 kts 348°
2026-05-06 18:44 48.66738 11.57517 14851 ft 362 kts 348°
2026-05-06 18:44 48.69242 11.56921 15420 ft 366 kts 348°
2026-05-06 18:44 48.71772 11.56317 16011 ft 370 kts 348°
2026-05-06 18:44 48.74325 11.55703 16662 ft 372 kts 349°
2026-05-06 18:45 48.76887 11.55082 17316 ft 374 kts 349°
2026-05-06 18:45 48.79469 11.54455 17935 ft 378 kts 349°
2026-05-06 18:45 48.82076 11.53820 18456 ft 382 kts 349°
2026-05-06 18:45 48.84710 11.53178 18963 ft 385 kts 349°
2026-05-06 18:46 48.87368 11.52532 19479 ft 388 kts 349°
2026-05-06 18:46 48.90048 11.51882 19972 ft 392 kts 349°
2026-05-06 18:46 48.92750 11.51230 20464 ft 395 kts 349°
2026-05-06 18:46 48.95478 11.50571 20953 ft 398 kts 349°
2026-05-06 18:47 48.98221 11.49906 21478 ft 400 kts 348°
2026-05-06 18:47 49.00983 11.49231 21954 ft 404 kts 349°
2026-05-06 18:47 49.03769 11.48550 22382 ft 408 kts 349°
2026-05-06 18:47 49.06579 11.47862 22833 ft 411 kts 349°
2026-05-06 18:48 49.09414 11.47168 23292 ft 414 kts 349°
2026-05-06 18:48 49.12238 11.46478 23668 ft 417 kts 349°
2026-05-06 18:48 49.15115 11.45773 24049 ft 421 kts 349°
2026-05-06 18:48 49.18017 11.45058 24410 ft 424 kts 349°
2026-05-06 18:49 49.20973 11.44328 24793 ft 426 kts 348°
2026-05-06 18:49 49.23909 11.43601 25152 ft 429 kts 348°
2026-05-06 18:49 49.26866 11.42868 25479 ft 432 kts 348°
2026-05-06 18:49 49.29821 11.42133 25644 ft 440 kts 348°
2026-05-06 18:50 49.32869 11.41376 25850 ft 446 kts 348°
2026-05-06 18:50 49.35946 11.40615 26150 ft 450 kts 348°
2026-05-06 18:50 49.39054 11.39904 26457 ft 453 kts 350°
2026-05-06 18:50 49.42202 11.39371 26802 ft 457 kts 352°
2026-05-06 18:51 49.45372 11.38978 27176 ft 458 kts 353°
2026-05-06 18:51 49.48564 11.38654 27498 ft 461 kts 354°
2026-05-06 18:51 49.51774 11.38344 27812 ft 463 kts 354°
2026-05-06 18:51 49.55003 11.38011 28132 ft 466 kts 353°
2026-05-06 18:52 49.58244 11.37639 28433 ft 469 kts 353°
2026-05-06 18:52 49.61509 11.37222 28730 ft 471 kts 352°
2026-05-06 18:52 49.64778 11.36774 29036 ft 473 kts 352°
2026-05-06 18:52 49.68069 11.36306 29343 ft 475 kts 352°
2026-05-06 18:53 49.71364 11.35834 29634 ft 477 kts 352°
2026-05-06 18:53 49.74685 11.35367 29900 ft 479 kts 352°
2026-05-06 18:53 49.78017 11.34910 30101 ft 483 kts 353°
2026-05-06 18:53 49.81375 11.34457 30303 ft 486 kts 353°
2026-05-06 18:54 49.84747 11.34005 30518 ft 488 kts 353°
2026-05-06 18:54 49.88139 11.33549 30771 ft 489 kts 352°
2026-05-06 18:54 49.91521 11.33092 31149 ft 487 kts 352°
2026-05-06 18:54 49.94855 11.32636 31504 ft 486 kts 352°
2026-05-06 18:55 49.98224 11.32173 31822 ft 486 kts 351°
2026-05-06 18:55 50.01587 11.31713 32132 ft 486 kts 351°
2026-05-06 18:55 50.04971 11.31250 32439 ft 486 kts 351°
2026-05-06 18:55 50.08335 11.30785 32749 ft 486 kts 351°
2026-05-06 18:56 50.11704 11.30319 33068 ft 485 kts 351°
2026-05-06 18:56 50.15062 11.29855 33400 ft 485 kts 350°
2026-05-06 18:56 50.18381 11.29396 33708 ft 485 kts 350°
2026-05-06 18:57 50.25074 11.28468 33808 ft 480 kts 350°
2026-05-06 18:57 50.31713 11.27557 33801 ft 479 kts 350°
2026-05-06 18:58 50.38342 11.26646 33799 ft 477 kts 350°
2026-05-06 18:58 50.44954 11.25720 33799 ft 477 kts 350°
2026-05-06 18:59 50.51565 11.24798 33801 ft 477 kts 350°
2026-05-06 18:59 50.58183 11.23867 33798 ft 477 kts 350°
2026-05-06 19:00 50.64753 11.22950 33812 ft 477 kts 350°
2026-05-06 19:00 50.71372 11.22024 33795 ft 477 kts 350°
2026-05-06 19:01 50.77984 11.21089 33788 ft 477 kts 350°
2026-05-06 19:01 50.84613 11.20149 33802 ft 477 kts 350°
2026-05-06 19:02 50.91217 11.19213 33802 ft 476 kts 350°
2026-05-06 19:02 50.97813 11.18277 33794 ft 476 kts 350°
2026-05-06 19:03 51.04402 11.17330 33803 ft 475 kts 350°
2026-05-06 19:03 51.10975 11.16390 33812 ft 474 kts 350°
2026-05-06 19:04 51.17531 11.15457 33812 ft 472 kts 350°
2026-05-06 19:04 51.24070 11.14512 33808 ft 471 kts 350°
2026-05-06 19:05 51.30602 11.13566 33825 ft 471 kts 350°
2026-05-06 19:05 51.37107 11.12621 33822 ft 469 kts 350°
2026-05-06 19:06 51.43568 11.11682 33816 ft 468 kts 350°
2026-05-06 19:06 51.50051 11.10731 33846 ft 468 kts 351°
2026-05-06 19:07 51.56526 11.09785 33846 ft 466 kts 351°
2026-05-06 19:07 51.62978 11.08842 33837 ft 465 kts 351°
2026-05-06 19:08 51.69417 11.07897 33834 ft 464 kts 351°
2026-05-06 19:08 51.75837 11.06951 33829 ft 463 kts 351°
2026-05-06 19:09 51.82265 11.06000 33840 ft 462 kts 352°
2026-05-06 19:09 51.88623 11.05025 33829 ft 461 kts 351°
2026-05-06 19:10 51.94987 11.03732 33828 ft 460 kts 349°
2026-05-06 19:10 52.01325 11.02270 33838 ft 460 kts 348°
2026-05-06 19:11 52.07666 11.00849 33829 ft 460 kts 349°
2026-05-06 19:11 52.14018 10.99492 33827 ft 460 kts 349°
2026-05-06 19:12 52.20364 10.98146 33833 ft 460 kts 349°
2026-05-06 19:12 52.26712 10.96784 33827 ft 461 kts 349°
2026-05-06 19:12 52.28819 10.96328 33647 ft 460 kts 349°
2026-05-06 19:13 52.33068 10.95410 33275 ft 460 kts 349°
2026-05-06 19:13 52.35171 10.94957 33108 ft 460 kts 349°
2026-05-06 19:13 52.38346 10.94272 32838 ft 460 kts 349°
2026-05-06 19:13 52.41516 10.93586 32574 ft 459 kts 349°
2026-05-06 19:14 52.45704 10.92683 32224 ft 457 kts 349°
2026-05-06 19:14 52.48853 10.92027 31756 ft 454 kts 349°
2026-05-06 19:14 52.50965 10.91596 31350 ft 452 kts 349°
2026-05-06 19:14 52.54075 10.90969 30765 ft 449 kts 350°
2026-05-06 19:15 52.57164 10.90344 30189 ft 446 kts 349°
2026-05-06 19:15 52.60194 10.89724 29571 ft 443 kts 349°
2026-05-06 19:15 52.63236 10.89100 29009 ft 438 kts 349°
2026-05-06 19:15 52.66247 10.88483 28453 ft 433 kts 349°
2026-05-06 19:16 52.69229 10.87870 27899 ft 429 kts 349°
2026-05-06 19:16 52.72179 10.87257 27381 ft 425 kts 349°
2026-05-06 19:16 52.75094 10.86645 26833 ft 420 kts 349°
2026-05-06 19:16 52.77981 10.86036 26325 ft 416 kts 350°
2026-05-06 19:17 52.80837 10.85437 25818 ft 412 kts 350°
2026-05-06 19:17 52.83671 10.84850 25347 ft 407 kts 350°
2026-05-06 19:17 52.86466 10.84274 24874 ft 403 kts 350°
2026-05-06 19:17 52.89231 10.83700 24406 ft 399 kts 350°
2026-05-06 19:18 52.91972 10.83125 23941 ft 395 kts 350°
2026-05-06 19:18 52.94657 10.82561 23484 ft 392 kts 350°
2026-05-06 19:18 52.97355 10.81995 22967 ft 389 kts 350°
2026-05-06 19:18 53.00034 10.81430 22515 ft 385 kts 350°
2026-05-06 19:19 53.02675 10.80873 22067 ft 381 kts 349°
2026-05-06 19:19 53.05295 10.80317 21603 ft 378 kts 349°
2026-05-06 19:19 53.07903 10.79763 21141 ft 376 kts 349°
2026-05-06 19:19 53.10490 10.79209 20677 ft 374 kts 349°
2026-05-06 19:20 53.13061 10.78657 20206 ft 372 kts 349°
2026-05-06 19:20 53.15636 10.78109 19687 ft 373 kts 349°
2026-05-06 19:20 53.18186 10.77568 19192 ft 374 kts 350°
2026-05-06 19:20 53.20800 10.77018 18673 ft 374 kts 350°
2026-05-06 19:21 53.23381 10.76477 18179 ft 374 kts 350°
2026-05-06 19:21 53.25960 10.75933 17620 ft 373 kts 350°
2026-05-06 19:21 53.28500 10.75392 17068 ft 373 kts 351°
2026-05-06 19:21 53.31074 10.74838 16512 ft 373 kts 351°
2026-05-06 19:22 53.33645 10.74283 15976 ft 372 kts 351°
2026-05-06 19:22 53.36210 10.73732 15438 ft 372 kts 351°
2026-05-06 19:22 53.38776 10.73184 14922 ft 371 kts 351°
2026-05-06 19:22 53.41333 10.72641 14405 ft 370 kts 351°
2026-05-06 19:23 53.43881 10.72097 13900 ft 369 kts 351°
2026-05-06 19:23 53.46423 10.71550 13357 ft 368 kts 351°
2026-05-06 19:23 53.48955 10.71002 12802 ft 366 kts 351°
2026-05-06 19:23 53.51454 10.70405 12469 ft 357 kts 347°
2026-05-06 19:24 53.53735 10.68884 11915 ft 353 kts 326°
2026-05-06 19:24 53.55463 10.66115 11510 ft 335 kts 303°
2026-05-06 19:24 53.56371 10.62624 11134 ft 324 kts 280°
2026-05-06 19:24 53.56692 10.58892 10760 ft 322 kts 275°
2026-05-06 19:25 53.56928 10.55144 10387 ft 322 kts 275°
2026-05-06 19:25 53.57140 10.51460 10022 ft 312 kts 275°
2026-05-06 19:25 53.57343 10.47841 9643 ft 310 kts 275°
2026-05-06 19:25 53.57536 10.44246 9251 ft 307 kts 275°
2026-05-06 19:26 53.57715 10.40745 8941 ft 302 kts 275°
2026-05-06 19:26 53.57649 10.37247 8616 ft 299 kts 257°
2026-05-06 19:26 53.56896 10.34018 8300 ft 295 kts 246°
2026-05-06 19:26 53.56002 10.30940 7995 ft 291 kts 244°
2026-05-06 19:27 53.55108 10.27909 7767 ft 287 kts 244°
2026-05-06 19:27 53.54223 10.24895 7591 ft 287 kts 244°
2026-05-06 19:27 53.53344 10.21887 7418 ft 286 kts 244°
2026-05-06 19:27 53.52467 10.18885 7239 ft 286 kts 244°
2026-05-06 19:28 53.51590 10.15892 7072 ft 285 kts 244°
2026-05-06 19:28 53.50711 10.12904 6925 ft 285 kts 244°
2026-05-06 19:28 53.49847 10.09964 6909 ft 272 kts 244°
2026-05-06 19:28 53.49030 10.07200 6912 ft 256 kts 244°
2026-05-06 19:29 53.48249 10.04557 6732 ft 251 kts 244°
2026-05-06 19:29 53.47474 10.01942 6411 ft 250 kts 244°
2026-05-06 19:29 53.46701 9.99339 6088 ft 249 kts 244°
2026-05-06 19:29 53.45934 9.96742 5731 ft 248 kts 244°
2026-05-06 19:30 53.45173 9.94146 5389 ft 248 kts 244°
2026-05-06 19:30 53.44416 9.91550 5132 ft 248 kts 244°
2026-05-06 19:30 53.43663 9.88947 4984 ft 248 kts 244°
2026-05-06 19:30 53.42907 9.86348 4980 ft 249 kts 244°
2026-05-06 19:31 53.42146 9.83736 4982 ft 249 kts 244°
2026-05-06 19:31 53.41385 9.81127 4980 ft 249 kts 244°
2026-05-06 19:31 53.39873 9.75941 4981 ft 249 kts 244°
2026-05-06 19:32 53.39122 9.73329 4984 ft 249 kts 248°
2026-05-06 19:32 53.38821 9.70518 4983 ft 246 kts 277°
2026-05-06 19:32 53.39365 9.67881 4983 ft 239 kts 310°
2026-05-06 19:32 53.40586 9.66075 4983 ft 234 kts 331°
2026-05-06 19:33 53.41993 9.64712 4985 ft 233 kts 340°
2026-05-06 19:33 53.43539 9.64046 4740 ft 227 kts
2026-05-06 19:33 53.45051 9.64362 4457 ft 213 kts 22°
2026-05-06 19:33 53.46299 9.65465 4321 ft 195 kts 40°
2026-05-06 19:34 53.47202 9.67011 4224 ft 178 kts 51°
2026-05-06 19:34 53.47974 9.68551 4085 ft 168 kts 51°
2026-05-06 19:34 53.48719 9.70037 3954 ft 166 kts 51°
2026-05-06 19:34 53.49458 9.71516 3881 ft 166 kts 51°
2026-05-06 19:35 53.50197 9.72993 3703 ft 165 kts 51°
2026-05-06 19:35 53.50932 9.74465 3505 ft 164 kts 51°
2026-05-06 19:35 53.51664 9.75931 3291 ft 163 kts 51°
2026-05-06 19:35 53.52386 9.77377 3069 ft 163 kts 51°
2026-05-06 19:36 53.53115 9.78840 2847 ft 163 kts 52°
2026-05-06 19:36 53.53842 9.80298 2617 ft 162 kts 52°
2026-05-06 19:36 53.54564 9.81747 2404 ft 161 kts 51°
2026-05-06 19:36 53.55282 9.83190 2182 ft 160 kts 51°
2026-05-06 19:37 53.55993 9.84618 1956 ft 156 kts 52°
2026-05-06 19:37 53.56667 9.85974 1750 ft 147 kts 52°
2026-05-06 19:37 53.57310 9.87267 1544 ft 143 kts 52°
2026-05-06 19:37 53.57939 9.88533 1364 ft 140 kts 52°
2026-05-06 19:38 53.58561 9.89786 1160 ft 140 kts 50°
2026-05-06 19:38 53.59182 9.91038 957 ft 139 kts 50°
2026-05-06 19:38 53.59798 9.92280 761 ft 138 kts 51°
2026-05-06 19:38 53.60413 9.93532 572 ft 138 kts 50°
2026-05-06 19:39 53.61022 9.94775 385 ft 138 kts 49°
2026-05-06 19:39 53.61645 9.96013 193 ft 139 kts 50°
2026-05-06 19:39 53.62262 9.97256 46 ft 133 kts 50°
2026-05-06 19:39 53.62776 9.98298 50 ft 100 kts 50°
2026-05-06 19:40 53.63147 9.99050 51 ft 48 kts 50°
2026-05-06 19:40 53.63289 9.99342 52 ft 19 kts 64°
2026-05-06 19:40 53.63285 9.99561 50 ft 16 kts 104°
2026-05-06 19:40 53.63277 9.99642 50 ft 0 kts 99°
2026-05-06 19:42 53.63276 9.99652 50 ft 5 kts 100°
2026-05-06 19:42 53.63244 9.99745 49 ft 16 kts 147°
2026-05-06 19:42 53.63128 9.99846 50 ft 19 kts 153°
2026-05-06 19:42 53.63007 9.99945 50 ft 19 kts 155°
2026-05-06 19:43 53.62940 10.00053 50 ft 11 kts 101°
2026-05-06 19:43 53.62948 10.00184 51 ft 12 kts 112°
2026-05-06 19:43 53.62931 10.00257 51 ft 0 kts 110°